Regional Weather Roundup
Issued by NWS

Home | Current Version | Previous Version | Graphics & Text | Print | Product List | Glossary On
Versions: 1 2 3 4 5 6 7 8 9 10 11 12 13 14 15 16 17 18 19 20 21 22 23 24 25 26 27 28 29 30 31 32 33 34 35 36 37 38 39 40 41 42 43 44 45 46 47 48 49 50
000
ASUS43 KDMX 090008
RWRIA

WEATHER ROUNDUP FOR IOWA
NATIONAL WEATHER SERVICE DES MOINES IA
600 PM CST MON FEB 08 2016

NOTE: "FAIR" INDICATES FEW OR NO CLOUDS BELOW 12,000 FEET WITH NO
SIGNIFICANT WEATHER AND/OR OBSTRUCTIONS TO VISIBILITY.

* - THESE STATIONS ARE NOT NWS STATIONS...THUS NOT UNDER NWS
QUALITY CONTROL.  THEY ALSO DO NOT REPORT WEATHER SUCH
AS PRECIPITATION OR FOG.

IAZ001>003-012>014-020>022-031>034-043>046-090100-
   NORTHWEST IOWA

CITY           SKY/WX    TMP DP  RH WIND       PRES   REMARKS
CARROLL *      MOCLDY    18  12  79 NW26      30.04S WCI  -1
CHEROKEE *     PTCLDY    18  14  84 NW10G20   30.08S WCI   7
DENISON *      PTCLDY    19  16  86 N17       30.05S WCI   4
LE MARS *      CLEAR     25  18  74 N12       30.12R WCI  14
ORANGE CITY *  CLEAR     21  18  86 N13       30.07S WCI   9
SHELDON *      CLOUDY    16  12  86 N17       30.06S WCI   0
SIOUX CITY     PTCLDY    28  18  66 N17       30.10S WCI  16
6HR MIN TEMP:  26; 6HR MAX TEMP:  30; 6HR PCP: TRACE;

SPENCER        LGT SNOW  16  10  77 NW24G33   30.05F WCI  -2
6HR MIN TEMP:  15; 6HR MAX TEMP:  18; 6HR PCP: TRACE;

STORM LAKE *   CLOUDY    18  14  86 N23G30    30.05R WCI   0
$$

IAZ055>058-069>071-079>083-090>094-090100-
   SOUTHWEST IOWA

CITY           SKY/WX    TMP DP  RH WIND       PRES   REMARKS
ATLANTIC *     MOCLDY    21  16  79 N13       30.08S WCI   9
AUDUBON *      PTCLDY    19  12  73 N13G22    30.06R WCI   7
CLARINDA *     PTCLDY    23  19  86 N9        30.11S WCI  13
COUNCIL BLFS * CLEAR     27  18  69 N22G29    30.07S WCI  12
CRESTON *      FLURRIES  21  14  73 NW23G38   30.04F WCI   5
HARLAN  *      CLEAR     21  18  86 N17G23    30.10S WCI   7
LAMONI         CLOUDY    21  11  65 NW17G29   30.04R WCI   7
6HR MIN TEMP:  20; 6HR MAX TEMP:  23; 6HR PCP: TRACE;

RED OAK *      CLEAR     25  18  74 N14G21    30.09S WCI  13
SHENANDOAH *   CLEAR     27  19  74 N10G18    30.12S WCI  17
$$

IAZ047>049-059>061-072>074-084-090100-
   CENTRAL IOWA

CITY           SKY/WX    TMP DP  RH WIND       PRES   REMARKS
AMES           FLURRIES  18  11  74 NW22G28   30.01S WCI   1
6HR MIN TEMP:  16; 6HR MAX TEMP:  19; 6HR PCP: TRACE;

ANKENY *       CLOUDY    19  10  68 NW20G29   30.02S WCI   4
BOONE *        LGT SNOW  18  10  73 NW25G35   29.99F WCI  -1
CHARITON *     LGT SNOW  18  10  73 NW24G32   30.02R WCI   0
DES MOINES     FLURRIES  20   9  62 N21G31    30.02F WCI   4
6HR MIN TEMP:  18; 6HR MAX TEMP:  20; 6HR PCP: TRACE;

GRINNELL*      LGT SNOW  16  12  86 NW22G37   29.97S WCI  -2
KNOXVILLE *    LGT SNOW  18  10  73 NW20G32   30.00R WCI   1
MARSHALLTOWN   LGT SNOW  16  11  80 NW23      29.97S WCI  -2
6HR MIN TEMP:  15; 6HR MAX TEMP:  17; 6HR PCP: TRACE;

NEWTON *       LGT SNOW  16  14  93 NW16G22   29.99S VSB 3/4 WCI   0
PELLA *        LGT SNOW  17  13  84 NW21G33   30.02R WCI   0
$$

IAZ004>006-015-016-023>025-035-036-090100-
   NORTH CENTRAL IOWA

CITY           SKY/WX    TMP DP  RH WIND       PRES   REMARKS
ALGONA *       CLOUDY    18  10  73 NW32G41   29.98F WCI  -3
CLARION *      LGT SNOW  16  10  79 NW30G40   29.98R WCI  -4
ESTHERVILLE    LGT SNOW  14  10  84 NW20G31   30.03R FOG     WCI  -3
6HR MIN TEMP:  13; 6HR MAX TEMP:  16; 6HR PCP: TRACE;

FORT DODGE *   CLOUDY    18   7  62 NW14G23   30.02S WCI   4
MASON CITY     LGT SNOW  14  11  87 NW26      29.95S FOG     WCI  -6
6HR MIN TEMP:  13; 6HR MAX TEMP:  16; 6HR PCP: TRACE;

FOREST CITY *  LGT SNOW  16  12  86 NW20G26   29.95S WCI  -1
WEBSTER CITY * SNOW      16  14  93 NW30G37   29.98S VSB 1/2 WCI  -4
IOWA FALLS *   CLOUDY    16  13  87 NW22G31   29.97S WCI  -1
$$

IAZ007>011-017>019-026>030-037>042-050>054-066-090100-
   NORTHEAST IOWA

CITY           SKY/WX    TMP DP  RH WIND       PRES   REMARKS
CEDAR RAPIDS   FLURRIES  16   9  74 NW24G33   29.91R WCI  -2
6HR MIN TEMP:  15; 6HR MAX TEMP:  18; 6HR PCP: TRACE;

CHARLES CITY * LGT SNOW  14  12  92 NW20      29.92S VSB 1   WCI  -3
CLINTON *      CLOUDY    19  14  81 NW23      29.85R WCI   2
DECORAH *      LGT SNOW  14   9  79 N21G28    29.87R WCI  -4
DUBUQUE        CLOUDY    16   8  71 NW20G29   29.83S WCI  -1
6HR MIN TEMP:  16; 6HR MAX TEMP:  20;

MONTICELLO *   FLURRIES  16   9  73 NW16G24   29.88S WCI   0
OELWEIN *      LGT SNOW  14   9  79 NW24      29.90S WCI  -5
WATERLOO       LGT SNOW  15   9  76 NW21G29   29.93R WCI  -2
6HR MIN TEMP:  15; 6HR MAX TEMP:  15; 6HR PCP: TRACE;

$$

IAZ064-065-067-068-078-090100-
   EAST CENTRAL IOWA

CITY           SKY/WX    TMP DP  RH WIND       PRES   REMARKS
DAVENPORT      CLOUDY    18   9  68 NW23G32   29.88R WCI   0
6HR MIN TEMP:  18; 6HR MAX TEMP:  21; 6HR PCP: TRACE;

IOWA CITY      FLURRIES  17   9  70 NW17G24   29.95R WCI   1
6HR MIN TEMP:  17; 6HR MAX TEMP:  19; 6HR PCP: TRACE;

MT. PLEASANT * CLOUDY    20  12  69 NW18G30   29.95S WCI   5
MUSCATINE *    CLOUDY    19   9  63 NW21G30   29.94R WCI   3
QUAD CITIES    CLOUDY    19  10  68 NW21G31   29.88R WCI   3
6HR MIN TEMP:  19; 6HR MAX TEMP:  22; 6HR PCP: TRACE;

$$

IAZ062-063-075>077-085>089-095>099-090100-
   SOUTHEAST IOWA

CITY           SKY/WX    TMP DP  RH WIND       PRES   REMARKS
BURLINGTON     CLOUDY    18  10  71 NW15G35   29.92S WCI   4
6HR MIN TEMP:  18; 6HR MAX TEMP:  20; 6HR PCP: TRACE;

FAIRFIELD *    LGT SNOW  18  10  73 NW22G31   29.96R WCI   0
FORT MADISON * CLOUDY    18  12  79 NW23G30   29.94S WCI   0
KEOKUK *       CLOUDY    19  12  73 NW13G24   29.95S WCI   7
OSKALOOSA *    FLURRIES  18  12  77 NW28G35   29.99R WCI  -1
CENTERVILLE *  FLURRIES  18  12  79 NW23      30.01R WCI   0
OTTUMWA        CLOUDY    18  11  74 NW26G33   29.98S WCI  -1
6HR MIN TEMP:  18; 6HR MAX TEMP:  18; 6HR PCP: TRACE;

WASHINGTON *   CLOUDY    18  10  73 NW22G31   29.96R WCI   0
$$

ABBREVIATIONS USED IN REMARKS
   TC - TEMPERATURES IN CELSIUS
  WCI - WIND CHILL INDEX
   HX - HEAT INDEX
  VSB - VISIBILITY
$$




USA.gov is the U.S. government's official web portal to all federal, state and local government web resources and services.